RVR12T EGGP-EGTE

Flight info

Callsign RVR12T
Flight time 0h 47m
Altitude 23000
Route REXAM2V REXAM DCT OGTAW N862 PACSE N92 EXMOR DCT TIVER DCT
Aircraft PC12/L-V/N

Departure

Time 2026-04-20 18:56
Airport Liverpool John Lennon Airport (EGGP)

Arrival

Time 2026-04-20 19:44
Airport Exeter International Airport (EGTE)
Time Latitude Longitude Altitude Speed Heading
2026-04-20 18:46 53.33663 -2.83668 86 ft 0 kts 264°
2026-04-20 18:52 53.33663 -2.83677 86 ft 6 kts 265°
2026-04-20 18:52 53.33633 -2.83798 86 ft 17 kts 179°
2026-04-20 18:52 53.33575 -2.83930 85 ft 20 kts 265°
2026-04-20 18:52 53.33563 -2.84182 86 ft 24 kts 265°
2026-04-20 18:53 53.33550 -2.84484 86 ft 28 kts 263°
2026-04-20 18:53 53.33534 -2.84824 86 ft 28 kts 268°
2026-04-20 18:53 53.33522 -2.85072 86 ft 23 kts 264°
2026-04-20 18:53 53.33508 -2.85363 85 ft 27 kts 266°
2026-04-20 18:54 53.33492 -2.85697 85 ft 31 kts 265°
2026-04-20 18:54 53.33477 -2.86063 85 ft 32 kts 265°
2026-04-20 18:54 53.33459 -2.86369 85 ft 25 kts 255°
2026-04-20 18:54 53.33340 -2.86400 85 ft 20 kts 143°
2026-04-20 18:55 53.33313 -2.86118 85 ft 40 kts 86°
2026-04-20 18:55 53.33345 -2.85434 87 ft 76 kts 85°
2026-04-20 18:55 53.33391 -2.84422 112 ft 96 kts 84°
2026-04-20 18:55 53.33435 -2.83262 213 ft 101 kts 87°
2026-04-20 18:56 53.33349 -2.82190 257 ft 74 kts 108°
2026-04-20 18:56 53.32992 -2.81378 389 ft 90 kts 132°
2026-04-20 18:56 53.32441 -2.80553 520 ft 115 kts 134°
2026-04-20 18:56 53.31946 -2.79403 775 ft 127 kts 110°
2026-04-20 18:57 53.31343 -2.78250 1070 ft 146 kts 155°
2026-04-20 18:57 53.30291 -2.78453 1395 ft 168 kts 208°
2026-04-20 18:57 53.29551 -2.80041 1731 ft 182 kts 241°
2026-04-20 18:57 53.28873 -2.81828 2085 ft 187 kts 224°
2026-04-20 18:58 53.27896 -2.83316 2434 ft 194 kts 217°
2026-04-20 18:58 53.26869 -2.84869 2778 ft 202 kts 220°
2026-04-20 18:58 53.25843 -2.86490 3103 ft 207 kts 221°
2026-04-20 18:58 53.24773 -2.88179 3432 ft 212 kts 221°
2026-04-20 18:59 53.23687 -2.89861 3755 ft 215 kts 220°
2026-04-20 18:59 53.22583 -2.91584 4069 ft 219 kts 221°
2026-04-20 18:59 53.21470 -2.93326 4386 ft 222 kts 221°
2026-04-20 18:59 53.20339 -2.95083 4702 ft 224 kts 221°
2026-04-20 19:00 53.19186 -2.96850 5027 ft 226 kts 220°
2026-04-20 19:00 53.18017 -2.98637 5340 ft 226 kts 220°
2026-04-20 19:00 53.16868 -3.00400 5634 ft 227 kts 221°
2026-04-20 19:00 53.15697 -3.02218 5962 ft 228 kts 221°
2026-04-20 19:01 53.14530 -3.04005 6278 ft 229 kts 221°
2026-04-20 19:01 53.13957 -3.04880 6438 ft 229 kts 221°
2026-04-20 19:01 53.12803 -3.06647 6739 ft 229 kts 221°
2026-04-20 19:02 53.11644 -3.08423 7041 ft 229 kts 221°
2026-04-20 19:02 53.10459 -3.10233 7343 ft 230 kts 221°
2026-04-20 19:02 53.09273 -3.12049 7640 ft 230 kts 221°
2026-04-20 19:02 53.07974 -3.13541 7931 ft 229 kts 202°
2026-04-20 19:03 53.06439 -3.14223 8231 ft 229 kts 184°
2026-04-20 19:03 53.04858 -3.14047 8535 ft 228 kts 165°
2026-04-20 19:03 53.03396 -3.13050 8851 ft 227 kts 149°
2026-04-20 19:03 53.02020 -3.11772 9166 ft 229 kts 150°
2026-04-20 19:04 53.00620 -3.10517 9491 ft 230 kts 150°
2026-04-20 19:04 52.99200 -3.09229 9825 ft 232 kts 149°
2026-04-20 19:04 52.97792 -3.07943 10149 ft 233 kts 149°
2026-04-20 19:04 52.96360 -3.06638 10448 ft 235 kts 150°
2026-04-20 19:05 52.94935 -3.05345 10748 ft 236 kts 150°
2026-04-20 19:05 52.93482 -3.04024 11042 ft 237 kts 150°
2026-04-20 19:05 52.92024 -3.02700 11345 ft 238 kts 150°
2026-04-20 19:05 52.90579 -3.01395 11653 ft 239 kts 150°
2026-04-20 19:06 52.89112 -3.00065 11967 ft 240 kts 150°
2026-04-20 19:06 52.87639 -2.98730 12278 ft 241 kts 150°
2026-04-20 19:06 52.86158 -2.97391 12595 ft 242 kts 150°
2026-04-20 19:06 52.84692 -2.96066 12913 ft 243 kts 150°
2026-04-20 19:07 52.83190 -2.94711 13241 ft 244 kts 151°
2026-04-20 19:07 52.81706 -2.93372 13564 ft 244 kts 151°
2026-04-20 19:07 52.80121 -2.92454 13867 ft 244 kts 171°
2026-04-20 19:07 52.78421 -2.92417 14182 ft 243 kts 188°
2026-04-20 19:08 52.76759 -2.92835 14476 ft 243 kts 189°
2026-04-20 19:08 52.73401 -2.93599 15071 ft 244 kts 189°
2026-04-20 19:08 52.71711 -2.94000 15371 ft 245 kts 189°
2026-04-20 19:09 52.70011 -2.94228 15671 ft 245 kts 184°
2026-04-20 19:09 52.68303 -2.94346 15978 ft 246 kts 185°
2026-04-20 19:09 52.66586 -2.94492 16289 ft 246 kts 185°
2026-04-20 19:09 52.64882 -2.94642 16598 ft 247 kts 185°
2026-04-20 19:10 52.63168 -2.94784 16910 ft 248 kts 185°
2026-04-20 19:10 52.61439 -2.94927 17227 ft 249 kts 185°
2026-04-20 19:10 52.59703 -2.95070 17551 ft 250 kts 185°
2026-04-20 19:10 52.58543 -2.95166 17768 ft 250 kts 186°
2026-04-20 19:11 52.56223 -2.95359 18201 ft 251 kts 186°
2026-04-20 19:11 52.54478 -2.95502 18529 ft 252 kts 186°
2026-04-20 19:11 52.52710 -2.95648 18819 ft 253 kts 187°
2026-04-20 19:11 52.50964 -2.95792 19106 ft 253 kts 187°
2026-04-20 19:12 52.49772 -2.95890 19303 ft 254 kts 187°
2026-04-20 19:12 52.48031 -2.96034 19586 ft 254 kts 188°
2026-04-20 19:12 52.45667 -2.96228 19981 ft 254 kts 189°
2026-04-20 19:12 52.43911 -2.96373 20279 ft 254 kts 189°
2026-04-20 19:13 52.42743 -2.96468 20480 ft 253 kts 189°
2026-04-20 19:13 52.40960 -2.96614 20788 ft 253 kts 190°
2026-04-20 19:13 52.39218 -2.96756 21088 ft 253 kts 191°
2026-04-20 19:13 52.37453 -2.96901 21398 ft 252 kts 191°
2026-04-20 19:14 52.35706 -2.97045 21706 ft 252 kts 192°
2026-04-20 19:14 52.33979 -2.97186 22020 ft 251 kts 193°
2026-04-20 19:14 52.32238 -2.97327 22334 ft 249 kts 193°
2026-04-20 19:14 52.30502 -2.97469 22657 ft 248 kts 193°
2026-04-20 19:15 52.28801 -2.97608 22981 ft 246 kts 194°
2026-04-20 19:15 52.27090 -2.97747 23301 ft 245 kts 194°
2026-04-20 19:15 52.25394 -2.97885 23634 ft 243 kts 195°
2026-04-20 19:15 52.23698 -2.98022 23939 ft 241 kts 195°
2026-04-20 19:16 52.22040 -2.98157 24209 ft 239 kts 196°
2026-04-20 19:16 52.20367 -2.98293 24486 ft 237 kts 196°
2026-04-20 19:16 52.18740 -2.98425 24762 ft 235 kts 196°
2026-04-20 19:16 52.17120 -2.98556 25038 ft 233 kts 197°
2026-04-20 19:17 52.15496 -2.98687 25322 ft 230 kts 197°
2026-04-20 19:17 52.13914 -2.98815 25603 ft 228 kts 198°
2026-04-20 19:17 52.12330 -2.98943 25887 ft 225 kts 198°
2026-04-20 19:17 52.10793 -2.99066 26170 ft 221 kts 198°
2026-04-20 19:18 52.09259 -2.99189 26457 ft 218 kts 199°
2026-04-20 19:18 52.07753 -2.99310 26755 ft 213 kts 199°
2026-04-20 19:18 52.06302 -2.99426 27044 ft 209 kts 200°
2026-04-20 19:18 52.04854 -2.99542 27337 ft 204 kts 200°
2026-04-20 19:19 52.03458 -2.99652 27630 ft 198 kts 201°
2026-04-20 19:19 52.02120 -2.99759 27917 ft 191 kts 202°
2026-04-20 19:19 52.00807 -2.99863 28206 ft 183 kts 203°
2026-04-20 19:19 51.99572 -2.99960 28482 ft 174 kts 204°
2026-04-20 19:20 51.98403 -3.00053 28745 ft 164 kts 206°
2026-04-20 19:20 51.97197 -3.00193 28079 ft 203 kts 205°
2026-04-20 19:20 51.95564 -3.00460 27287 ft 257 kts 198°
2026-04-20 19:20 51.93685 -3.00520 26978 ft 277 kts 192°
2026-04-20 19:21 51.91745 -3.00552 26704 ft 287 kts 194°
2026-04-20 19:21 51.89715 -3.00756 26420 ft 298 kts 195°
2026-04-20 19:21 51.87612 -3.01000 26126 ft 305 kts 197°
2026-04-20 19:21 51.85501 -3.01424 25838 ft 308 kts 198°
2026-04-20 19:22 51.83352 -3.01893 25537 ft 310 kts 198°
2026-04-20 19:22 51.81197 -3.02347 25236 ft 312 kts 197°
2026-04-20 19:22 51.79054 -3.02787 24930 ft 314 kts 197°
2026-04-20 19:22 51.76876 -3.03238 24622 ft 315 kts 197°
2026-04-20 19:23 51.74705 -3.03694 24320 ft 316 kts 197°
2026-04-20 19:23 51.72501 -3.04156 24020 ft 317 kts 196°
2026-04-20 19:23 51.70321 -3.04607 23670 ft 318 kts 196°
2026-04-20 19:23 51.68117 -3.05065 23307 ft 318 kts 195°
2026-04-20 19:24 51.65941 -3.05517 22947 ft 318 kts 195°
2026-04-20 19:24 51.63744 -3.05979 22582 ft 317 kts 196°
2026-04-20 19:24 51.61621 -3.06753 22221 ft 310 kts 205°
2026-04-20 19:24 51.59635 -3.08044 21860 ft 304 kts 214°
2026-04-20 19:25 51.57856 -3.09785 21511 ft 298 kts 223°
2026-04-20 19:25 51.56288 -3.11925 21161 ft 293 kts 230°
2026-04-20 19:25 51.54816 -3.14206 20767 ft 294 kts 231°
2026-04-20 19:25 51.53341 -3.16457 20439 ft 295 kts 229°
2026-04-20 19:26 51.51800 -3.18693 20117 ft 297 kts 228°
2026-04-20 19:26 51.50232 -3.20840 19789 ft 299 kts 226°
2026-04-20 19:26 51.48599 -3.22934 19470 ft 300 kts 224°
2026-04-20 19:26 51.46937 -3.24920 19154 ft 302 kts 222°
2026-04-20 19:27 51.45194 -3.26851 18840 ft 304 kts 219°
2026-04-20 19:27 51.43400 -3.28678 18528 ft 306 kts 217°
2026-04-20 19:27 51.41572 -3.30378 18175 ft 308 kts 214°
2026-04-20 19:27 51.39652 -3.31984 17817 ft 309 kts 212°
2026-04-20 19:28 51.37710 -3.33427 17466 ft 311 kts 208°
2026-04-20 19:28 51.35684 -3.34733 17119 ft 312 kts 205°
2026-04-20 19:28 51.33645 -3.35840 16777 ft 313 kts 201°
2026-04-20 19:28 51.31534 -3.36761 16438 ft 313 kts 197°
2026-04-20 19:29 51.29409 -3.37445 16101 ft 313 kts 193°
2026-04-20 19:29 51.27239 -3.37870 15736 ft 313 kts 188°
2026-04-20 19:29 51.25052 -3.38015 15352 ft 312 kts 183°
2026-04-20 19:29 51.22912 -3.37862 14981 ft 310 kts 179°
2026-04-20 19:30 51.20768 -3.37965 14607 ft 306 kts 187°
2026-04-20 19:30 51.18639 -3.38203 14237 ft 305 kts 185°
2026-04-20 19:30 51.16515 -3.38166 13855 ft 304 kts 177°
2026-04-20 19:30 51.14441 -3.37685 13437 ft 303 kts 171°
2026-04-20 19:31 51.12351 -3.37159 13036 ft 300 kts 174°
2026-04-20 19:31 51.10282 -3.37069 12627 ft 296 kts 186°
2026-04-20 19:31 51.08268 -3.37512 12237 ft 293 kts 191°
2026-04-20 19:31 51.06257 -3.38044 11854 ft 291 kts 189°
2026-04-20 19:32 51.04711 -3.38329 11561 ft 290 kts 186°
2026-04-20 19:32 51.02698 -3.38614 11180 ft 289 kts 186°
2026-04-20 19:32 51.00715 -3.38936 10809 ft 287 kts 187°
2026-04-20 19:32 50.98738 -3.39298 10436 ft 282 kts 187°
2026-04-20 19:33 50.96817 -3.39640 10056 ft 269 kts 186°
2026-04-20 19:33 50.94983 -3.39952 9641 ft 260 kts 186°
2026-04-20 19:33 50.93196 -3.40185 9230 ft 254 kts 182°
2026-04-20 19:33 50.91438 -3.40257 8823 ft 251 kts 180°
2026-04-20 19:34 50.89714 -3.40318 8436 ft 247 kts 180°
2026-04-20 19:34 50.87992 -3.40401 8043 ft 244 kts 182°
2026-04-20 19:34 50.86399 -3.41229 7629 ft 246 kts 212°
2026-04-20 19:34 50.85263 -3.43200 7231 ft 247 kts 238°
2026-04-20 19:35 50.84452 -3.45624 6865 ft 247 kts 243°
2026-04-20 19:35 50.83689 -3.48065 6489 ft 247 kts 243°
2026-04-20 19:35 50.82941 -3.50487 6099 ft 247 kts 243°
2026-04-20 19:35 50.82189 -3.52946 5706 ft 248 kts 243°
2026-04-20 19:36 50.81440 -3.55416 5319 ft 248 kts 243°
2026-04-20 19:36 50.80697 -3.57886 4940 ft 249 kts 243°
2026-04-20 19:36 50.79963 -3.60337 4538 ft 249 kts 243°
2026-04-20 19:36 50.79243 -3.62855 4144 ft 248 kts 245°
2026-04-20 19:37 50.78556 -3.65348 3769 ft 248 kts 245°
2026-04-20 19:37 50.77866 -3.67853 3381 ft 247 kts 245°
2026-04-20 19:37 50.77185 -3.70331 3027 ft 245 kts 245°
2026-04-20 19:37 50.76496 -3.72801 3012 ft 250 kts 242°
2026-04-20 19:38 50.75371 -3.74856 2996 ft 250 kts 210°
2026-04-20 19:38 50.73774 -3.75704 2993 ft 238 kts 179°
2026-04-20 19:38 50.72131 -3.75578 3003 ft 234 kts 170°
2026-04-20 19:38 50.70534 -3.75282 3007 ft 231 kts 165°
2026-04-20 19:39 50.69137 -3.74202 2993 ft 222 kts 133°
2026-04-20 19:39 50.68435 -3.72258 2992 ft 187 kts 99°
2026-04-20 19:39 50.68641 -3.70381 2980 ft 173 kts 63°
2026-04-20 19:39 50.69195 -3.68664 2994 ft 181 kts 76°
2026-04-20 19:40 50.69450 -3.66671 3007 ft 188 kts 78°
2026-04-20 19:40 50.69786 -3.64636 2968 ft 197 kts 76°
2026-04-20 19:40 50.70116 -3.62476 2720 ft 211 kts 77°
2026-04-20 19:40 50.70469 -3.60226 2438 ft 194 kts 76°
2026-04-20 19:41 50.70762 -3.58403 2190 ft 155 kts 78°
2026-04-20 19:41 50.71002 -3.56825 1980 ft 147 kts 77°
2026-04-20 19:41 50.71251 -3.55270 1777 ft 144 kts 77°
2026-04-20 19:41 50.71489 -3.53753 1581 ft 143 kts 77°
2026-04-20 19:42 50.71729 -3.52225 1382 ft 143 kts 77°
2026-04-20 19:42 50.71968 -3.50707 1182 ft 145 kts 77°
2026-04-20 19:42 50.72213 -3.49142 967 ft 146 kts 77°
2026-04-20 19:42 50.72459 -3.47579 762 ft 148 kts 77°
2026-04-20 19:43 50.72695 -3.46068 578 ft 138 kts 78°
2026-04-20 19:43 50.72920 -3.44620 390 ft 134 kts 78°
2026-04-20 19:43 50.73148 -3.43199 208 ft 132 kts 78°
2026-04-20 19:43 50.73349 -3.41914 105 ft 104 kts 78°
2026-04-20 19:44 50.73471 -3.41148 105 ft 27 kts 75°
2026-04-20 19:44 50.73377 -3.41048 106 ft 20 kts 173°
2026-04-20 19:44 50.73238 -3.41084 106 ft 20 kts 222°
2026-04-20 19:44 50.73207 -3.41322 106 ft 22 kts 278°
2026-04-20 19:45 50.73213 -3.41549 103 ft 22 kts 272°
2026-04-20 19:45 50.73188 -3.41714 108 ft 7 kts 133°
2026-04-20 19:45 50.73173 -3.41685 108 ft 0 kts 133°